Date String (YYYY-MM-DD hh:mm:ss) UTC,Instrument flags,Ambient pressure (hPa),Sample flow (lpm),Bypass flow (lpm),Sample temperature (°C),Ambient temperature (°C),ASC tube jacket temperature (°C),LED temperature (°C),Box temperature (°C),Sample RH (%),Span deviation,Mass concentration (μg/m³),Mass concentration (μg/m³),Mass concentration (μg/m³)
DateTimeUTC,F1_M11,P_M11,Q1_M11,Q2_M11,T1_M11,T2_M11,T3_M11,T4_M11,T5_M11,U1_M11,ZSPAN_M11,X0_M11,X2_M11,X1_M11
2022-02-12 07:00:00,,0835.6,5.00,0.00,21.7,21.1,00.0,30.9,23.3,12.6,0000.0,0004.06,0002.39,0002.12
2022-02-12 07:01:00,,0835.6,5.00,0.00,21.8,21.8,00.0,31.0,23.6,12.5,0000.0,0004.75,0002.36,0002.11
2022-02-12 07:02:00,,0835.6,5.01,0.00,22.0,22.7,00.0,31.0,23.9,12.4,0000.0,0004.80,0002.36,0002.10
2022-02-12 07:03:00,,0835.6,5.00,0.00,22.1,23.1,00.0,31.0,24.1,12.3,0000.0,0004.69,0002.36,0002.09
2022-02-12 07:04:00,,0835.6,5.01,0.00,22.2,22.9,00.0,31.1,24.1,12.2,0000.0,0004.19,0002.34,0002.08
2022-02-12 07:05:00,,0835.6,5.00,0.00,22.2,22.6,00.0,31.1,24.1,12.1,0000.0,0004.46,0002.35,0002.05
2022-02-12 07:06:00,,0835.6,4.99,0.00,22.2,22.4,00.0,31.1,24.0,12.1,0000.0,0004.71,0002.36,0002.04
2022-02-12 07:07:00,,0835.6,4.98,0.00,22.2,22.2,00.0,31.1,23.9,12.1,0000.0,0004.87,0002.38,0002.03
2022-02-12 07:08:00,,0835.6,5.01,0.00,22.1,22.0,00.0,31.1,23.9,12.1,0000.0,0004.92,0002.39,0002.02
2022-02-12 07:09:00,,0835.6,5.00,0.00,22.1,21.8,00.0,31.1,23.8,12.1,0000.0,0004.78,0002.39,0002.00
2022-02-12 07:10:00,,0835.6,5.00,0.00,22.1,21.7,00.0,31.1,23.8,12.1,0000.0,0005.43,0002.36,0002.00
2022-02-12 07:11:00,,0835.6,4.99,0.00,22.1,21.6,00.0,31.1,23.8,12.1,0000.0,0005.76,0002.39,0002.00
2022-02-12 07:12:00,,0835.6,5.01,0.00,22.1,21.6,00.0,31.1,23.7,12.1,0000.0,0005.17,0002.40,0002.01
2022-02-12 07:13:00,,0835.6,4.99,0.00,22.0,21.5,00.0,31.1,23.7,12.1,0000.0,0005.04,0002.43,0002.03
2022-02-12 07:14:00,,0835.6,5.00,0.00,22.0,21.4,00.0,31.1,23.7,12.1,0000.0,0005.13,0002.45,0002.05
2022-02-12 07:15:00,,0835.6,5.01,0.00,22.0,21.3,00.0,31.0,23.7,12.1,0000.0,0005.21,0002.48,0002.09
2022-02-12 07:16:00,,0835.6,4.98,0.00,22.0,21.3,00.0,31.0,23.6,12.1,0000.0,0005.11,0002.50,0002.12
2022-02-12 07:17:00,,0835.5,5.01,0.00,21.9,21.3,00.0,31.0,23.6,12.1,0000.0,0004.72,0002.51,0002.15
2022-02-12 07:18:00,,0835.6,5.00,0.00,21.9,21.2,00.0,31.0,23.6,12.1,0000.0,0004.50,0002.51,0002.18
2022-02-12 07:19:00,,0835.6,4.99,0.00,21.9,21.2,00.0,31.0,23.5,12.2,0000.0,0004.45,0002.53,0002.22
2022-02-12 07:20:00,,0835.6,4.99,0.00,21.9,21.2,00.0,31.0,23.5,12.2,0000.0,0004.47,0002.55,0002.24
2022-02-12 07:21:00,,0835.6,5.02,0.00,21.8,21.2,00.0,31.0,23.5,12.2,0000.0,0003.88,0002.56,0002.25
2022-02-12 07:22:00,,0835.6,5.00,0.00,21.9,21.8,00.0,31.0,23.7,12.1,0000.0,0003.14,0002.54,0002.26
2022-02-12 07:23:00,,0835.6,4.99,0.00,22.1,22.6,00.0,31.0,24.0,12.0,0000.0,0003.15,0002.56,0002.28
2022-02-12 07:24:00,,0835.6,5.00,0.00,22.2,22.8,00.0,31.1,24.1,11.9,0000.0,0003.27,0002.63,0002.30
2022-02-12 07:25:00,,0835.6,4.99,0.00,22.2,22.6,00.0,31.1,24.1,11.9,0000.0,0003.27,0002.63,0002.31
2022-02-12 07:26:00,,0835.6,5.00,0.00,22.2,22.4,00.0,31.1,24.1,11.8,0000.0,0003.24,0002.62,0002.31
2022-02-12 07:27:00,,0835.6,5.00,0.00,22.2,22.2,00.0,31.1,24.0,11.8,0000.0,0003.21,0002.61,0002.31
2022-02-12 07:28:00,,0835.6,5.00,0.00,22.2,22.0,00.0,31.1,23.9,11.7,0000.0,0003.20,0002.60,0002.31
2022-02-12 07:29:00,,0835.6,4.99,0.00,22.2,21.8,00.0,31.1,23.9,11.7,0000.0,0003.17,0002.59,0002.30
2022-02-12 07:30:00,,0835.6,5.01,0.00,22.1,21.7,00.0,31.1,23.8,11.6,0000.0,0003.24,0002.60,0002.30
2022-02-12 07:31:00,,0835.6,5.01,0.00,22.1,21.6,00.0,31.1,23.8,11.6,0000.0,0003.23,0002.58,0002.30
2022-02-12 07:32:00,,0835.6,4.99,0.00,22.1,21.5,00.0,31.1,23.8,11.5,0000.0,0003.18,0002.57,0002.31
2022-02-12 07:33:00,,0835.6,5.01,0.00,22.1,21.5,00.0,31.1,23.8,11.4,0000.0,0003.27,0002.58,0002.30
2022-02-12 07:34:00,,0835.6,4.99,0.00,22.0,21.4,00.0,31.1,23.7,11.3,0000.0,0003.30,0002.57,0002.29
2022-02-12 07:35:00,,0835.6,5.01,0.00,22.0,21.4,00.0,31.1,23.7,11.2,0000.0,0003.17,0002.50,0002.27
2022-02-12 07:36:00,,0835.5,4.99,0.00,22.0,21.3,00.0,31.1,23.7,11.2,0000.0,0003.11,0002.49,0002.27
2022-02-12 07:37:00,,0835.6,4.99,0.00,22.0,21.3,00.0,31.0,23.6,10.9,0000.0,0003.02,0002.49,0002.25
2022-02-12 07:38:00,,0835.5,5.01,0.00,21.9,21.3,00.0,31.0,23.6,10.8,0000.0,0003.06,0002.48,0002.22
2022-02-12 07:39:00,,0835.5,5.01,0.00,21.9,21.2,00.0,31.0,23.6,10.8,0000.0,0003.14,0002.47,0002.20
2022-02-12 07:40:00,,0835.5,4.99,0.00,21.9,21.2,00.0,31.0,23.6,10.8,0000.0,0003.21,0002.49,0002.19
2022-02-12 07:41:00,,0835.5,5.02,0.00,22.0,21.8,00.0,31.0,23.7,10.7,0000.0,0003.25,0002.47,0002.17
2022-02-12 07:42:00,,0835.4,4.99,0.00,22.1,22.5,00.0,31.1,24.0,10.6,0000.0,0003.23,0002.47,0002.16
2022-02-12 07:43:00,,0835.5,5.00,0.00,22.2,23.0,00.0,31.1,24.2,10.4,0000.0,0003.34,0002.48,0002.13
2022-02-12 07:44:00,,0835.5,5.00,0.00,22.3,22.8,00.0,31.1,24.2,10.3,0000.0,0003.34,0002.48,0002.13
2022-02-12 07:45:00,,0835.5,5.00,0.00,22.3,22.6,00.0,31.1,24.2,10.2,0000.0,0003.18,0002.44,0002.12
2022-02-12 07:46:00,,0835.5,5.00,0.00,22.3,22.4,00.0,31.1,24.1,10.1,0000.0,0003.67,0002.41,0002.09
2022-02-12 07:47:00,,0835.4,5.00,0.00,22.3,22.2,00.0,31.2,24.1,10.0,0000.0,0004.08,0002.38,0002.06
2022-02-12 07:48:00,,0835.5,4.99,0.00,22.3,22.0,00.0,31.2,24.0,10.0,0000.0,0004.09,0002.36,0002.04
2022-02-12 07:49:00,,0835.5,5.01,0.00,22.2,21.9,00.0,31.2,24.0,09.9,0000.0,0004.65,0002.33,0002.03
2022-02-12 07:50:00,,0835.5,5.01,0.00,22.2,21.8,00.0,31.2,23.9,09.9,0000.0,0005.09,0002.31,0002.01
2022-02-12 07:51:00,,0835.5,4.99,0.00,22.2,21.7,00.0,31.2,23.9,10.1,0000.0,0005.03,0002.31,0002.03
2022-02-12 07:52:00,,0835.5,5.00,0.00,22.2,21.6,00.0,31.2,23.9,10.3,0000.0,0004.93,0002.33,0002.07
2022-02-12 07:53:00,,0835.5,4.99,0.00,22.1,21.5,00.0,31.2,23.8,10.4,0000.0,0004.96,0002.37,0002.12
2022-02-12 07:54:00,,0835.5,5.01,0.00,22.1,21.5,00.0,31.1,23.8,10.4,0000.0,0004.91,0002.41,0002.17
2022-02-12 07:55:00,,0835.5,5.00,0.00,22.1,21.4,00.0,31.1,23.7,10.4,0000.0,0004.91,0002.45,0002.22
2022-02-12 07:56:00,,0835.5,4.99,0.00,22.0,21.4,00.0,31.1,23.7,10.5,0000.0,0005.02,0002.51,0002.27
2022-02-12 07:57:00,,0835.5,5.01,0.00,22.0,21.3,00.0,31.1,23.7,10.6,0000.0,0004.63,0002.62,0002.34
2022-02-12 07:58:00,,0835.5,4.99,0.00,22.0,21.2,00.0,31.1,23.6,10.6,0000.0,0004.26,0002.68,0002.40
2022-02-12 07:59:00,,0835.5,5.01,0.00,21.9,21.1,00.0,31.0,23.5,10.6,0000.0,0004.29,0002.74,0002.47
